Weather History for Wright-Patt AFB, OH

Change the Weather History Date:

Monday, December 31, 2012

  Actual Average Record
Temperature  
Mean Temperature 28 °F -  
Max Temperature 33 °F 35 °F 63 °F (2010)
Min Temperature 23 °F 21 °F 10 °F (1998)
Degree Days  
Heating Degree Days 37    
Moisture  
Dew Point 25 °F    
Average Humidity 76    
Maximum Humidity 87    
Minimum Humidity 62    
Precipitation  
Precipitation 0.01 in - - ()
Snow  
Snow 0.00 in - - ()
Snow Depth 4.00 in    
Sea Level Pressure  
Sea Level Pressure 30.15 in    
Wind  
Wind Speed 12 mph (SSW)    
Max Wind Speed 17 mph    
Max Gust Speed 22 mph    
Visibility 6 miles    
Events Rain , Snow    
Averages and records for this station are not official NWS values.
T = Trace of Precipitation, MM = Missing Value Source: NWS Daily Summary

Daily Weather History Graph

Daily Weather History Graph

Search for Another Location

Airport:

Trip Planner

Search our weather history database for the weather conditions in past years. The results will help you decide how hot, cold, wet, or windy it might be!

Date:

Astronomy

Dec. 31, 2012 Rise Set
Actual Time 7:57 AM EST 5:21 PM EST
Civil Twilight 7:27 AM EST 5:51 PM EST
Nautical Twilight 6:53 AM EST 6:25 PM EST
Astronomical Twilight 6:20 AM EST 6:58 PM EST
Moon 8:50 PM EST (12/31) 9:38 AM EST (12/31)
Length of Visible Light 10h 24m
Length of Day
9h 24m
Waning Gibbous, 90% of the Moon is Illuminated
Dec 31
Waning Gibbous
Jan 4
Last Quarter
Jan 11
New
Jan 18
First Quarter
Jan 26
Full

Hourly Weather History & Observations

Time (EST) Temp. Windchill Dew Point Humidity Pressure Visibility Wind Dir Wind Speed Gust Speed Precip Events Conditions
12:55 AM 24.3 °F 14.6 °F 17.1 °F 74% 30.32 in 10.0 mi South 9.2 mph - N/A   Mostly Cloudy
1:55 AM 24.1 °F 17.0 °F 17.2 °F 75% 30.30 in 10.0 mi SSE 5.8 mph - N/A   Mostly Cloudy
2:55 AM 23.5 °F 15.4 °F 17.1 °F 76% 30.29 in 10.0 mi SSE 6.9 mph - N/A   Scattered Clouds
3:55 AM 25.3 °F 14.1 °F 17.8 °F 73% 30.28 in 10.0 mi South 12.7 mph - N/A   Scattered Clouds
4:55 AM 27.5 °F 16.3 °F 19.0 °F 71% 30.25 in 10.0 mi SSW 13.8 mph - N/A   Mostly Cloudy
5:55 AM 27.3 °F 15.6 °F 19.0 °F 71% 30.23 in 10.0 mi SSW 15.0 mph - N/A   Mostly Cloudy
6:55 AM 28.4 °F 18.0 °F 19.8 °F 70% 30.23 in 10.0 mi SSW 12.7 mph 21.9 mph N/A   Mostly Cloudy
7:55 AM 29.1 °F 18.4 °F 19.9 °F 69% 30.22 in 10.0 mi SSW 13.8 mph - N/A   Mostly Cloudy
8:55 AM 30.7 °F 20.9 °F 19.9 °F 64% 30.20 in 10.0 mi SW 12.7 mph - N/A   Overcast
9:55 AM 31.8 °F 21.8 °F 20.5 °F 63% 30.19 in 10.0 mi SSW 13.8 mph - N/A   Overcast
10:55 AM 33.1 °F 22.6 °F 21.2 °F 62% 30.21 in 10.0 mi SW 16.1 mph - N/A   Overcast
11:55 AM 33.3 °F 24.1 °F 21.7 °F 63% 30.19 in 10.0 mi SW 12.7 mph - N/A   Overcast
12:31 PM 32.0 °F 21.6 °F 21.2 °F 64% 30.16 in 7.0 mi SSW 15.0 mph - N/A Snow Light Snow
12:40 PM 33.8 °F 23.2 °F 24.8 °F 70% 30.16 in 1.2 mi SSW 17.3 mph - N/A Snow Light Snow
12:49 PM 32.0 °F 21.6 °F 24.8 °F 75% 30.16 in 1.5 mi SSW 15.0 mph - N/A Snow Light Snow
12:55 PM 31.8 °F 21.0 °F 25.5 °F 78% 30.16 in 1.5 mi SSW 16.1 mph - 0.00 in Snow Light Snow
12:59 PM 32.0 °F 21.6 °F 24.8 °F 75% 30.16 in 0.8 mi SSW 15.0 mph - N/A Snow Light Snow
1:11 PM 32.0 °F 20.8 °F 26.6 °F 80% 30.15 in 2.8 mi SSW 17.3 mph - N/A Snow Light Snow
1:20 PM 32.0 °F 23.0 °F 26.6 °F 80% 30.13 in 4.0 mi SSW 11.5 mph - N/A Snow Light Snow
1:25 PM 32.0 °F 23.0 °F 24.8 °F 75% 30.12 in 3.0 mi SSW 11.5 mph - N/A Snow Light Snow
1:28 PM 32.0 °F 23.6 °F 24.8 °F 75% 30.12 in 2.0 mi SSW 10.4 mph - N/A Snow Light Snow
1:48 PM 32.0 °F 21.6 °F 24.8 °F 75% 30.10 in 2.5 mi SSW 15.0 mph - N/A Snow Light Snow
1:55 PM 32.4 °F 21.7 °F 25.2 °F 75% 30.11 in 2.5 mi SSW 16.1 mph - 0.00 in Snow Light Snow
2:10 PM 32.0 °F 22.5 °F 24.8 °F 75% 30.11 in 1.5 mi SW 12.7 mph - N/A Snow Light Snow
2:27 PM 32.0 °F 23.0 °F 26.6 °F 80% 30.12 in 1.0 mi SSW 11.5 mph - N/A Snow Light Snow
2:43 PM 32.0 °F 23.0 °F 26.6 °F 80% 30.12 in 1.0 mi SSW 11.5 mph - N/A Snow Light Snow
2:55 PM 31.6 °F 23.1 °F 26.8 °F 82% 30.12 in 1.0 mi SSW 10.4 mph - 0.00 in Snow Light Snow
3:08 PM 32.0 °F 23.6 °F 26.6 °F 80% 30.12 in 0.8 mi SSW 10.4 mph - N/A Snow Light Snow
3:15 PM 32.0 °F 23.6 °F 26.6 °F 80% 30.12 in 0.8 mi SSW 10.4 mph - N/A Snow Light Snow
3:20 PM 32.0 °F 23.0 °F 26.6 °F 80% 30.13 in 1.0 mi SSW 11.5 mph - N/A Snow Light Snow
3:31 PM 32.0 °F 22.5 °F 28.4 °F 87% 30.14 in 3.0 mi SSW 12.7 mph - N/A Snow Light Snow
3:55 PM 32.2 °F 23.8 °F 27.3 °F 82% 30.14 in 3.0 mi SW 10.4 mph - 0.01 in Snow Light Snow
4:51 PM 32.0 °F 23.6 °F 26.6 °F 80% 30.12 in 7.0 mi SSW 10.4 mph - N/A Snow Light Snow
5:40 PM 32.0 °F 24.2 °F 26.6 °F 80% 30.12 in 6.0 mi SW 9.2 mph - N/A Snow Light Snow
5:55 PM 32.5 °F 25.5 °F 27.3 °F 81% 30.11 in 10.0 mi SSW 8.1 mph - 0.00 in   Overcast
6:44 PM 32.0 °F 23.6 °F 26.6 °F 80% 30.10 in 10.0 mi SSW 10.4 mph - N/A   Overcast
6:55 PM 32.7 °F 23.4 °F 27.1 °F 80% 30.11 in 10.0 mi SSW 12.7 mph - N/A   Overcast
7:38 PM 33.8 °F 24.3 °F 28.4 °F 81% 30.11 in 10.0 mi SSW 13.8 mph - N/A   Overcast
7:55 PM 33.3 °F 23.2 °F 27.9 °F 81% 30.10 in 10.0 mi South 15.0 mph - N/A   Overcast
8:04 PM 33.8 °F 25.3 °F 28.4 °F 81% 30.09 in 10.0 mi South 11.5 mph - N/A   Overcast
8:55 PM 33.3 °F 25.1 °F 28.0 °F 81% 30.10 in 10.0 mi SW 10.4 mph - N/A   Overcast
9:55 PM 33.3 °F 23.7 °F 27.7 °F 80% 30.08 in 10.0 mi SW 13.8 mph - N/A   Overcast
10:55 PM 33.3 °F 25.7 °F 28.2 °F 82% 30.07 in 10.0 mi SW 9.2 mph - 0.00 in Snow Light Snow
11:41 PM 33.8 °F 26.4 °F 28.4 °F 81% 30.09 in 7.0 mi SW 9.2 mph - N/A Rain Light Rain
11:55 PM 32.9 °F 26.7 °F 28.6 °F 84% 30.08 in 3.0 mi SW 6.9 mph - 0.00 in Snow Light Snow